Weather in Palau

Italy     41°10′46″N   9°22′55″E
temp.,
°C
wind,
m/s
gust,
m/s
humid.,
%
clouds,
%
prec.,
mm/h
press.,
hPa
HPBL,
m
9 may, sun
sun923:00+16w45750 0.0 1019106
02:00+16ssw22730 0.0 101954
05:00+15se23725 0.0 1018114
08:00+16ese4576100 0.0 1018174
11:00+17ese5776100 0.0 1018234
14:00+18e5779100 0.0 1017253
17:00+18ese7108069 0.0 1016301
20:00+18ese81280100 0.0 1016303
10 may, mon
mon1023:00+17ese710836 0.0 1016245
02:00+17ese8118493 0.0 1015301
05:00+17ese710865 0.0 1014335
08:00+17ese913874 0.0 1014398
11:00+18se1215835 0.0 1014367
14:00+17se1215847 0.0 1012286
17:00+18s4584100 0.0 1012106
20:00+18nw5787100 0.0 1013130
11 may, tue
tue1123:00+17nnw22895 0.0 101347
02:00+17nne549176 0.0 1011132
05:00+17w71192100 0.1 1012407
08:00+16wnw4494100 1.6 1013269
11:00+16ene2295100 3.4 1012180
14:00+16w9148852 7.4 1011754
17:00+15wnw711810 1.3 1011512
20:00+17wsw1214720 1.3 1010814
12 may, wed
wed1223:00+15w1416782 0.0 10111164
02:00+15w15177540 0.1 10111437
05:00+16w15187641 0.2 10101544
08:00+16w1420730 0.3 10111762
11:00+16w1520710 0.0 10111687
14:00+16w1418745 0.0 10121642
17:00+17w1317722 0.2 10101404
20:00+17w1419710 0.3 10101388
13 may, thu
thu1323:00+16wnw1214749 0.5 10111318
02:00+16w1215740 0.5 10101383
05:00+17w13167575 0.0 10081167
08:00+17w131675100 0.0 10081261
11:00+16w13157336 0.0 10091025
14:00+16w12147368 0.0 1010892
17:00+16w1214732 0.0 1010874
20:00+16w12157233 0.0 10111044